Temp
-21 -21 -21 -21 -21 -21 -21 -21 -21 -20 -20 -19 -19 -19 -19 -19 -19 -18 -18 -17 -17 -15 -14 -14 -14 -13 -12 -11 -10 -9 -8 -6 -5 -5 -6 -6 -6 -5 -5 -5 -6 -6 -6 -6 -6 -6 -6 -6 -5 -5 -5 -5 -5 -5 -5 -4 -4 -4 -4 -4 -4 -4 -4 -4 -4 -4 -5 -5 -5 -4 -3 -2 -2 -1
-22 -21 -21 -21 -21 -21 -22 -22 -22 -21 -20 -20 -20 -20 -19 -19 -19 -18 -18 -18 -17 -17 -17 -16 -15 -15 -14 -12 -11 -10 -9 -8 -6 -6 -6 -6 -6 -6 -6 -5 -6 -6 -6 -6 -7 -6 -6 -6 -6 -5 -5 -5 -5 -5 -5 -5 -5 -5 -4 -4 -4 -4 -4 -4 -4 -4 -5 -5 -5 -5 -4 -3 -2 -1
-21 -21 -21 -21 -21 -21 -21 -22 -22 -21 -20 -20 -21 -20 -20 -19 -19 -19 -19 -18 -18 -18 -18 -17 -16 -16 -16 -14 -13 -12 -11 -9 -8 -8 -7 -6 -6 -6 -6 -6 -6 -6 -6 -6 -7 -7 -7 -6 -6 -6 -5 -5 -5 -5 -5 -5 -5 -5 -5 -5 -4 -4 -4 -4 -4 -4 -5 -5 -5 -5 -4 -4 -3 -2
-22 -22 -21 -21 -21 -21 -21 -21 -21 -21 -20 -20 -20 -20 -20 -20 -19 -19 -19 -19 -18 -18 -17 -17 -17 -16 -16 -15 -14 -13 -12 -11 -10 -9 -9 -8 -7 -7 -7 -7 -6 -6 -7 -6 -7 -7 -7 -6 -6 -6 -6 -5 -5 -5 -5 -5 -5 -5 -5 -5 -5 -5 -5 -4 -4 -4 -5 -5 -5 -5 -5 -4 -4 -3
-22 -22 -22 -21 -21 -21 -21 -21 -21 -21 -20 -20 -20 -20 -20 -20 -19 -19 -19 -19 -18 -18 -17 -17 -17 -16 -16 -15 -14 -14 -14 -13 -11 -11 -10 -9 -9 -8 -7 -7 -7 -7 -7 -7 -7 -7 -7 -7 -6 -6 -6 -6 -5 -5 -5 -5 -5 -6 -6 -5 -5 -5 -5 -5 -4 -4 -5 -5 -5 -5 -5 -5 -5 -4
-23 -23 -23 -22 -22 -22 -22 -21 -21 -21 -20 -20 -20 -20 -20 -20 -20 -19 -19 -19 -18 -18 -18 -17 -17 -17 -16 -16 -15 -15 -14 -14 -13 -12 -11 -11 -10 -9 -8 -7 -7 -7 -7 -7 -7 -7 -7 -7 -7 -6 -6 -6 -6 -5 -5 -6 -5 -5 -6 -6 -6 -6 -5 -5 -5 -5 -5 -5 -5 -5 -6 -6 -5 -5
-24 -24 -24 -23 -23 -22 -22 -22 -21 -21 -20 -20 -20 -20 -20 -20 -19 -19 -19 -19 -18 -18 -18 -17 -17 -17 -16 -16 -15 -15 -15 -15 -14 -13 -12 -12 -11 -11 -10 -8 -7 -7 -7 -7 -7 -7 -7 -7 -7 -7 -7 -6 -6 -6 -6 -6 -6 -5 -6 -6 -6 -6 -6 -5 -5 -5 -5 -6 -6 -6 -6 -6 -6 -5
-24 -24 -24 -23 -23 -23 -22 -22 -21 -21 -21 -21 -20 -20 -20 -19 -19 -19 -19 -19 -18 -18 -18 -17 -17 -17 -17 -16 -16 -15 -15 -15 -14 -14 -14 -13 -13 -12 -12 -10 -9 -8 -7 -7 -7 -7 -7 -7 -7 -7 -7 -7 -6 -6 -6 -6 -6 -5 -5 -6 -6 -6 -6 -6 -5 -5 -5 -6 -6 -6 -6 -5 -5 -6
-24 -24 -23 -23 -23 -22 -22 -22 -21 -21 -21 -21 -20 -20 -20 -19 -19 -19 -19 -19 -18 -18 -18 -17 -17 -17 -17 -16 -16 -15 -15 -15 -15 -15 -14 -14 -13 -13 -13 -12 -11 -9 -8 -8 -8 -8 -7 -7 -7 -7 -7 -7 -7 -6 -6 -6 -6 -6 -6 -6 -6 -6 -6 -6 -6 -6 -6 -6 -6 -6 -6 -6 -6 -5
-24 -24 -23 -23 -22 -22 -22 -22 -21 -21 -21 -20 -20 -20 -20 -19 -19 -19 -19 -19 -18 -18 -18 -17 -17 -17 -17 -16 -16 -16 -15 -15 -15 -15 -14 -14 -14 -13 -13 -12 -12 -11 -10 -9 -9 -8 -8 -8 -7 -7 -7 -7 -7 -7 -6 -6 -6 -6 -6 -6 -6 -6 -6 -6 -6 -6 -6 -6 -6 -6 -6 -6 -6 -6
-24 -24 -23 -23 -22 -22 -22 -22 -21 -21 -21 -20 -20 -20 -19 -19 -19 -19 -19 -18 -18 -18 -18 -17 -17 -17 -17 -16 -16 -16 -15 -15 -15 -15 -14 -14 -13 -13 -13 -13 -12 -12 -11 -10 -10 -9 -9 -8 -8 -8 -7 -7 -7 -7 -7 -7 -6 -6 -6 -6 -6 -6 -6 -6 -6 -6 -6 -6 -6 -6 -6 -6 -6 -6
-23 -23 -23 -23 -22 -22 -22 -21 -21 -21 -20 -20 -20 -20 -19 -19 -19 -19 -18 -18 -18 -18 -17 -17 -17 -17 -17 -16 -16 -16 -15 -15 -15 -15 -14 -14 -14 -13 -13 -13 -12 -12 -11 -11 -10 -10 -10 -9 -9 -8 -8 -8 -7 -7 -7 -7 -7 -6 -6 -6 -6 -6 -6 -6 -7 -7 -6 -6 -6 -7 -7 -6 -6 -6
-23 -23 -23 -23 -22 -22 -21 -21 -21 -21 -20 -20 -20 -20 -19 -19 -19 -18 -18 -18 -18 -18 -18 -17 -17 -17 -17 -16 -16 -16 -16 -15 -15 -15 -14 -14 -14 -14 -14 -13 -13 -12 -12 -11 -11 -11 -10 -10 -9 -9 -8 -8 -8 -8 -7 -7 -7 -7 -7 -7 -7 -7 -7 -7 -7 -7 -7 -7 -7 -7 -7 -6 -6 -6
-23 -23 -23 -23 -22 -21 -21 -21 -21 -20 -20 -20 -20 -19 -19 -19 -19 -18 -18 -18 -18 -18 -18 -17 -17 -17 -17 -16 -16 -16 -16 -15 -15 -15 -14 -14 -14 -14 -14 -13 -13 -13 -12 -12 -11 -11 -10 -10 -10 -9 -9 -9 -9 -8 -8 -8 -7 -7 -7 -7 -7 -7 -7 -7 -7 -7 -7 -7 -7 -7 -7 -7 -7 -7
-23 -23 -23 -22 -22 -21 -21 -21 -20 -20 -20 -20 -20 -19 -19 -19 -19 -19 -18 -18 -18 -18 -17 -17 -17 -17 -17 -16 -16 -16 -16 -15 -15 -15 -15 -14 -14 -14 -14 -13 -13 -13 -12 -12 -11 -11 -10 -10 -10 -10 -9 -9 -9 -9 -8 -8 -8 -8 -8 -8 -7 -7 -7 -7 -7 -7 -7 -7 -7 -7 -7 -7 -7 -7
-22 -22 -22 -22 -21 -21 -21 -20 -20 -20 -20 -20 -20 -19 -19 -19 -19 -19 -18 -18 -18 -18 -18 -18 -18 -17 -17 -17 -16 -16 -16 -16 -16 -15 -15 -15 -14 -14 -14 -13 -13 -13 -13 -12 -12 -11 -11 -10 -10 -10 -10 -9 -9 -9 -9 -9 -8 -8 -8 -8 -8 -8 -8 -7 -7 -7 -7 -7 -7 -7 -7 -7 -7 -7
-22 -22 -22 -21 -21 -21 -20 -20 -20 -20 -20 -20 -20 -20 -19 -19 -19 -19 -19 -18 -18 -18 -18 -18 -18 -18 -17 -17 -17 -17 -17 -16 -16 -16 -15 -15 -15 -14 -14 -13 -13 -13 -13 -12 -12 -12 -11 -11 -11 -11 -10 -10 -10 -9 -9 -9 -9 -8 -8 -8 -8 -8 -8 -8 -8 -8 -7 -7 -7 -7 -8 -8 -8 -8
-22 -21 -21 -21 -21 -21 -20 -20 -20 -20 -20 -20 -20 -19 -19 -19 -19 -19 -19 -19 -19 -18 -18 -18 -18 -18 -18 -18 -17 -17 -17 -17 -16 -16 -16 -16 -15 -15 -15 -14 -14 -14 -13 -13 -13 -12 -12 -12 -12 -11 -11 -11 -10 -10 -10 -9 -9 -9 -9 -9 -9 -9 -9 -8 -8 -8 -8 -8 -8 -7 -8 -8 -8 -8
-21 -21 -21 -21 -21 -21 -20 -20 -20 -20 -20 -20 -20 -19 -19 -19 -19 -19 -19 -19 -19 -19 -18 -18 -18 -18 -18 -18 -18 -18 -18 -17 -17 -17 -16 -16 -16 -16 -15 -15 -15 -14 -14 -14 -13 -13 -13 -12 -12 -12 -11 -11 -11 -11 -10 -10 -10 -9 -9 -10 -9 -9 -9 -9 -9 -9 -9 -9 -8 -8 -8 -8 -8 -8
-21 -21 -21 -21 -21 -21 -21 -21 -20 -20 -20 -20 -20 -19 -19 -19 -19 -19 -19 -19 -19 -19 -18 -18 -18 -18 -18 -18 -18 -18 -18 -18 -18 -17 -17 -16 -16 -16 -16 -16 -15 -15 -15 -15 -14 -14 -14 -13 -13 -12 -12 -12 -11 -11 -11 -11 -11 -10 -10 -10 -10 -10 -10 -9 -9 -9 -9 -9 -9 -9 -8 -8 -8 -8
-21 -21 -21 -21 -20 -20 -20 -20 -20 -20 -20 -20 -20 -20 -19 -19 -19 -19 -19 -18 -18 -18 -18 -18 -18 -18 -18 -18 -18 -18 -18 -18 -18 -17 -17 -17 -16 -16 -16 -16 -15 -15 -15 -15 -15 -15 -14 -14 -14 -13 -12 -12 -12 -12 -12 -12 -11 -11 -11 -11 -10 -10 -10 -10 -10 -10 -10 -9 -9 -9 -9 -9 -9 -9
-21 -21 -21 -21 -21 -20 -20 -20 -20 -20 -20 -20 -20 -20 -20 -19 -19 -19 -19 -18 -18 -18 -18 -18 -18 -18 -18 -18 -18 -18 -18 -18 -18 -17 -17 -17 -17 -16 -16 -16 -15 -15 -15 -15 -15 -15 -15 -14 -14 -14 -13 -13 -13 -13 -12 -12 -12 -12 -12 -11 -11 -11 -11 -11 -11 -11 -10 -10 -10 -10 -10 -9 -9 -9
-20 -20 -20 -20 -20 -20 -20 -20 -20 -20 -20 -20 -20 -20 -20 -20 -19 -19 -19 -19 -19 -19 -19 -18 -18 -18 -18 -18 -18 -18 -18 -18 -18 -18 -17 -17 -17 -16 -16 -16 -15 -15 -15 -15 -15 -15 -15 -15 -15 -15 -14 -14 -14 -14 -13 -13 -13 -13 -13 -12 -12 -12 -12 -12 -12 -12 -11 -11 -11 -11 -10 -10 -10 -10
-20 -20 -19 -19 -19 -19 -19 -19 -19 -20 -20 -20 -20 -20 -19 -19 -19 -19 -19 -19 -19 -19 -19 -19 -19 -19 -19 -19 -19 -19 -19 -18 -18 -18 -18 -18 -17 -17 -16 -16 -16 -15 -15 -15 -16 -16 -15 -15 -15 -15 -15 -15 -15 -14 -14 -14 -14 -14 -13 -13 -13 -13 -13 -12 -12 -12 -12 -12 -12 -11 -11 -11 -11 -11
-19 -19 -19 -19 -19 -19 -19 -19 -19 -19 -19 -19 -19 -19 -19 -19 -19 -19 -19 -19 -19 -19 -19 -19 -19 -19 -19 -19 -19 -19 -19 -19 -19 -18 -18 -18 -18 -17 -17 -16 -16 -16 -16 -16 -16 -16 -16 -16 -15 -15 -15 -15 -15 -15 -15 -14 -14 -14 -14 -14 -13 -13 -13 -13 -13 -12 -12 -12 -12 -12 -12 -12 -11 -11
-19 -19 -19 -19 -19 -19 -19 -19 -19 -19 -19 -19 -19 -19 -19 -19 -19 -19 -19 -19 -19 -19 -19 -19 -19 -19 -19 -19 -19 -19 -19 -19 -19 -19 -18 -18 -18 -18 -18 -17 -17 -17 -17 -17 -17 -17 -16 -16 -16 -16 -16 -16 -16 -15 -15 -15 -15 -15 -14 -14 -14 -13 -13 -13 -13 -13 -13 -13 -12 -12 -12 -12 -12 -12
-19 -19 -19 -19 -19 -19 -19 -19 -19 -19 -19 -19 -19 -19 -19 -19 -19 -19 -19 -19 -19 -19 -19 -19 -20 -19 -19 -19 -19 -19 -19 -19 -19 -19 -19 -18 -18 -18 -18 -18 -18 -18 -17 -17 -17 -17 -17 -16 -16 -16 -16 -16 -16 -15 -15 -15 -15 -15 -15 -14 -14 -14 -14 -13 -13 -13 -13 -13 -13 -13 -13 -13 -13 -12
-19 -19 -18 -18 -18 -18 -18 -18 -19 -19 -19 -19 -19 -19 -19 -19 -19 -19 -19 -19 -19 -19 -19 -19 -19 -19 -19 -19 -19 -19 -19 -19 -19 -19 -19 -19 -19 -18 -18 -18 -18 -18 -18 -18 -18 -18 -17 -17 -16 -16 -16 -16 -16 -16 -15 -15 -15 -15 -15 -15 -14 -14 -14 -14 -14 -13 -13 -13 -13 -14 -14 -13 -13 -13
-18 -18 -18 -18 -18 -18 -18 -18 -19 -19 -19 -19 -20 -20 -20 -20 -20 -20 -20 -20 -20 -20 -19 -19 -19 -19 -19 -19 -19 -19 -19 -19 -19 -19 -19 -19 -19 -19 -19 -19 -19 -19 -18 -18 -18 -18 -18 -17 -17 -17 -17 -17 -16 -16 -15 -15 -15 -15 -15 -15 -15 -15 -14 -14 -14 -14 -14 -14 -14 -14 -14 -14 -14 -14
-18 -18 -18 -18 -18 -18 -18 -18 -19 -19 -19 -20 -20 -20 -21 -21 -20 -20 -20 -20 -20 -20 -20 -19 -19 -19 -19 -19 -19 -19 -19 -19 -19 -19 -19 -19 -19 -19 -19 -19 -19 -19 -19 -19 -19 -18 -18 -18 -17 -18 -17 -17 -17 -16 -16 -15 -15 -15 -15 -15 -15 -15 -15 -15 -15 -15 -15 -15 -15 -15 -15 -15 -15 -15
-18 -18 -18 -18 -17 -17 -17 -18 -18 -19 -19 -19 -20 -20 -21 -21 -21 -21 -20 -20 -20 -20 -20 -20 -19 -19 -19 -19 -19 -19 -19 -19 -19 -19 -19 -19 -19 -19 -19 -19 -19 -19 -19 -19 -19 -19 -19 -18 -18 -18 -18 -17 -17 -17 -16 -16 -16 -16 -16 -16 -16 -16 -16 -15 -15 -15 -15 -15 -15 -15 -15 -15 -16 -16
-18 -18 -18 -18 -17 -17 -17 -18 -18 -19 -19 -19 -20 -20 -20 -21 -21 -21 -21 -20 -20 -20 -20 -20 -19 -19 -19 -19 -19 -19 -19 -19 -19 -19 -19 -19 -19 -19 -19 -19 -19 -19 -19 -19 -19 -19 -19 -19 -18 -18 -18 -18 -18 -17 -17 -17 -17 -17 -17 -17 -16 -16 -16 -16 -16 -16 -16 -16 -16 -16 -16 -16 -16 -16
-18 -18 -18 -18 -17 -17 -18 -18 -19 -19 -19 -19 -20 -20 -20 -20 -20 -20 -20 -20 -20 -20 -20 -20 -20 -19 -19 -19 -19 -19 -19 -19 -19 -19 -19 -19 -19 -19 -19 -19 -19 -19 -19 -19 -19 -19 -19 -19 -18 -18 -18 -18 -18 -18 -18 -17 -17 -17 -17 -17 -17 -17 -16 -16 -16 -16 -16 -16 -16 -16 -16 -16 -16 -16
-18 -18 -18 -17 -17 -17 -18 -18 -18 -19 -19 -19 -20 -20 -20 -20 -20 -20 -20 -20 -20 -20 -20 -20 -20 -20 -19 -19 -19 -19 -19 -19 -19 -19 -19 -19 -19 -19 -18 -18 -18 -18 -19 -19 -19 -19 -19 -18 -18 -18 -18 -18 -18 -18 -18 -18 -17 -17 -17 -17 -17 -17 -17 -17 -17 -17 -17 -16 -16 -16 -16 -16 -16 -16
-18 -18 -18 -18 -18 -18 -18 -18 -18 -18 -19 -19 -20 -20 -20 -20 -20 -20 -20 -20 -20 -20 -20 -20 -20 -20 -19 -19 -19 -20 -19 -19 -19 -19 -19 -19 -18 -18 -18 -18 -18 -18 -18 -19 -19 -19 -19 -18 -18 -18 -18 -18 -18 -18 -18 -17 -17 -17 -17 -17 -17 -17 -17 -17 -17 -17 -17 -17 -17 -16 -16 -16 -16 -16
-18 -18 -18 -18 -18 -18 -19 -19 -19 -19 -19 -19 -19 -20 -20 -20 -20 -20 -20 -20 -20 -20 -20 -20 -20 -20 -20 -19 -19 -20 -19 -19 -19 -18 -19 -18 -18 -18 -18 -18 -18 -18 -18 -18 -18 -18 -18 -18 -18 -18 -18 -18 -18 -18 -17 -18 -18 -17 -17 -17 -17 -17 -17 -17 -17 -17 -17 -17 -17 -17 -17 -17 -16 -17
-19 -19 -18 -18 -18 -19 -19 -19 -19 -19 -19 -19 -19 -20 -20 -20 -20 -20 -20 -20 -20 -20 -20 -20 -20 -20 -19 -19 -19 -19 -19 -19 -19 -18 -18 -18 -18 -18 -18 -18 -18 -18 -18 -18 -18 -18 -18 -18 -18 -18 -18 -18 -18 -18 -18 -18 -18 -18 -18 -18 -18 -18 -18 -18 -18 -18 -18 -18 -17 -17 -17 -17 -17 -17
-19 -19 -19 -19 -18 -19 -19 -20 -20 -20 -19 -19 -20 -20 -20 -20 -20 -20 -20 -20 -20 -20 -20 -20 -20 -20 -19 -19 -19 -19 -19 -19 -19 -18 -18 -18 -18 -18 -18 -18 -18 -18 -18 -18 -18 -18 -19 -18 -18 -18 -18 -18 -18 -18 -18 -18 -18 -18 -18 -18 -18 -18 -18 -18 -18 -18 -18 -18 -18 -18 -17 -17 -17 -17
-19 -19 -19 -19 -19 -19 -19 -20 -20 -20 -20 -19 -20 -20 -20 -20 -20 -20 -20 -20 -20 -20 -20 -20 -20 -20 -20 -20 -20 -19 -19 -19 -19 -19 -18 -18 -18 -18 -18 -18 -18 -18 -18 -18 -18 -18 -18 -18 -18 -18 -18 -18 -18 -18 -18 -18 -18 -18 -18 -18 -18 -18 -18 -18 -18 -18 -18 -18 -18 -18 -18 -18 -18 -18
-19 -19 -19 -19 -19 -19 -19 -20 -20 -20 -20 -20 -20 -20 -20 -20 -20 -20 -20 -20 -20 -20 -20 -19 -19 -19 -20 -20 -20 -19 -19 -19 -19 -19 -19 -18 -18 -18 -18 -18 -18 -18 -18 -18 -18 -18 -18 -18 -18 -19 -19 -19 -18 -18 -18 -18 -18 -18 -18 -18 -18 -18 -18 -18 -18 -18 -18 -18 -18 -18 -18 -18 -18 -18
-19 -19 -19 -19 -19 -19 -20 -20 -20 -20 -20 -20 -20 -20 -20 -20 -20 -20 -20 -20 -20 -20 -20 -20 -20 -20 -20 -20 -19 -19 -19 -19 -19 -19 -19 -19 -19 -19 -18 -18 -18 -18 -18 -18 -18 -18 -18 -18 -19 -19 -19 -19 -18 -18 -18 -18 -18 -18 -18 -18 -18 -18 -18 -18 -18 -18 -18 -19 -19 -19 -18 -18 -18 -18
-19 -19 -19 -19 -19 -19 -19 -20 -20 -20 -20 -20 -20 -20 -20 -20 -20 -20 -20 -20 -20 -20 -20 -20 -20 -20 -20 -20 -19 -19 -19 -19 -19 -19 -19 -19 -19 -19 -19 -19 -19 -19 -19 -19 -19 -18 -18 -19 -19 -19 -19 -19 -19 -19 -18 -18 -18 -18 -18 -18 -18 -18 -19 -19 -19 -19 -19 -19 -19 -19 -19 -19 -19 -18
-20 -20 -20 -20 -20 -19 -19 -19 -20 -20 -20 -20 -20 -20 -20 -20 -20 -20 -20 -20 -20 -20 -20 -20 -20 -20 -20 -19 -19 -19 -19 -19 -19 -19 -19 -19 -19 -19 -19 -19 -19 -19 -19 -19 -19 -19 -19 -19 -19 -19 -19 -19 -19 -19 -19 -19 -19 -19 -19 -18 -18 -18 -19 -19 -19 -19 -19 -19 -19 -19 -19 -19 -19 -19
-20 -20 -20 -20 -20 -20 -19 -19 -20 -20 -20 -20 -20 -20 -20 -20 -20 -20 -20 -20 -20 -20 -20 -20 -20 -20 -20 -20 -19 -19 -19 -19 -19 -19 -19 -19 -19 -19 -19 -19 -19 -19 -19 -19 -19 -19 -19 -19 -19 -19 -19 -19 -19 -19 -19 -19 -19 -19 -19 -19 -18 -18 -19 -19 -20 -20 -20 -20 -20 -20 -20 -20 -20 -20
-20 -20 -20 -20 -20 -20 -20 -20 -20 -20 -20 -20 -20 -20 -20 -20 -20 -20 -20 -20 -20 -20 -20 -19 -20 -20 -20 -20 -19 -19 -19 -19 -19 -19 -19 -19 -19 -19 -19 -19 -19 -19 -19 -19 -19 -19 -19 -19 -19 -19 -19 -19 -19 -19 -19 -19 -19 -19 -19 -19 -19 -19 -19 -19 -20 -20 -20 -20 -20 -20 -20 -20 -20 -20
Height
2865 2867 2869 2871 2874 2877 2880 2881 2883 2885 2888 2891 2893 2896 2897 2899 2900 2902 2903 2904 2907 2911 2915 2919 2922 2925 2929 2934 2938 2942 2948 2954 2960 2964 2968 2974 2979 2984 2989 2994 2999 3004 3008 3012 3016 3020 3023 3026 3029 3032 3036 3040 3043 3047 3050 3053 3056 3060 3063 3065 3067 3070 3072 3074 3076 3079 3080 3083 3085 3087 3089 3092 3095 3098
2860 2862 2864 2866 2868 2872 2874 2875 2877 2880 2882 2885 2888 2890 2893 2895 2896 2898 2899 2899 2902 2907 2909 2913 2918 2919 2921 2925 2929 2933 2937 2943 2949 2953 2958 2965 2970 2976 2981 2985 2991 2996 3000 3004 3009 3013 3016 3019 3022 3026 3029 3034 3037 3041 3044 3047 3051 3054 3058 3060 3062 3065 3068 3070 3072 3074 3076 3078 3081 3083 3085 3088 3091 3094
2854 2856 2859 2861 2863 2866 2869 2870 2872 2875 2877 2880 2883 2885 2888 2890 2892 2894 2895 2894 2896 2902 2904 2907 2912 2915 2915 2918 2921 2923 2927 2933 2938 2943 2948 2954 2961 2966 2971 2976 2982 2988 2992 2996 3001 3005 3008 3012 3015 3019 3023 3027 3031 3035 3038 3041 3044 3048 3052 3054 3057 3060 3063 3066 3069 3071 3073 3075 3077 3079 3081 3084 3087 3089
2849 2851 2853 2855 2858 2860 2863 2865 2867 2870 2873 2876 2878 2881 2883 2886 2887 2890 2891 2889 2892 2897 2899 2901 2905 2908 2909 2912 2915 2917 2919 2924 2929 2933 2938 2945 2950 2955 2960 2967 2973 2979 2984 2989 2994 2998 3002 3004 3008 3013 3016 3020 3024 3028 3032 3035 3038 3042 3046 3049 3052 3055 3058 3061 3064 3067 3069 3071 3074 3075 3077 3080 3083 3085
2844 2846 2848 2850 2853 2855 2858 2860 2863 2865 2868 2871 2874 2876 2879 2881 2884 2886 2886 2886 2888 2893 2896 2897 2899 2902 2904 2906 2909 2911 2912 2915 2919 2923 2929 2935 2939 2943 2951 2958 2964 2969 2975 2981 2986 2991 2994 2997 3001 3005 3009 3012 3016 3020 3024 3028 3032 3035 3039 3043 3046 3049 3052 3056 3058 3061 3064 3067 3070 3072 3073 3076 3078 3081
2841 2842 2844 2846 2849 2852 2854 2856 2859 2861 2864 2867 2869 2872 2875 2877 2879 2882 2883 2883 2884 2887 2890 2893 2895 2897 2900 2901 2902 2905 2906 2908 2911 2914 2920 2926 2930 2934 2941 2948 2954 2960 2966 2973 2978 2982 2985 2989 2993 2997 3001 3005 3009 3013 3017 3021 3025 3029 3033 3037 3040 3043 3047 3050 3053 3056 3059 3062 3065 3068 3070 3072 3074 3076
2837 2838 2840 2842 2845 2848 2850 2852 2855 2858 2861 2863 2865 2868 2871 2872 2875 2877 2878 2879 2880 2882 2885 2889 2891 2893 2895 2896 2898 2900 2901 2902 2904 2906 2911 2917 2922 2927 2931 2937 2945 2952 2957 2963 2969 2973 2976 2981 2985 2989 2993 2997 3001 3006 3010 3014 3018 3022 3026 3030 3033 3037 3041 3044 3048 3051 3054 3056 3060 3063 3066 3068 3071 3073
2832 2834 2836 2838 2841 2844 2846 2849 2852 2855 2858 2860 2863 2865 2867 2869 2871 2873 2874 2875 2877 2879 2880 2883 2886 2889 2890 2892 2894 2895 2895 2897 2899 2900 2903 2908 2913 2919 2923 2928 2935 2942 2948 2954 2959 2964 2968 2972 2977 2981 2986 2990 2994 2999 3003 3007 3011 3015 3019 3023 3027 3030 3034 3038 3042 3045 3048 3051 3054 3058 3061 3064 3066 3069
2829 2831 2833 2835 2838 2841 2843 2846 2849 2852 2855 2858 2860 2862 2864 2866 2867 2869 2871 2872 2874 2875 2875 2878 2882 2884 2886 2887 2889 2890 2891 2892 2894 2896 2897 2901 2905 2911 2916 2921 2926 2932 2939 2944 2949 2954 2959 2964 2970 2974 2979 2983 2988 2992 2996 3000 3004 3009 3012 3016 3020 3024 3027 3031 3035 3039 3042 3045 3049 3052 3056 3059 3062 3064
2827 2828 2830 2833 2836 2838 2840 2843 2846 2849 2852 2855 2857 2859 2861 2863 2864 2865 2868 2869 2869 2871 2872 2874 2877 2880 2881 2883 2885 2886 2887 2888 2889 2891 2893 2896 2899 2904 2910 2915 2920 2925 2930 2935 2940 2946 2951 2956 2962 2967 2971 2975 2980 2985 2989 2993 2998 3002 3006 3010 3014 3017 3021 3025 3029 3033 3036 3039 3043 3047 3050 3053 3056 3059
2825 2826 2828 2831 2833 2835 2838 2840 2843 2846 2849 2851 2853 2855 2857 2859 2861 2862 2864 2865 2866 2867 2868 2870 2873 2875 2877 2879 2880 2881 2883 2884 2885 2887 2889 2891 2895 2899 2904 2910 2915 2919 2923 2928 2933 2938 2943 2948 2954 2959 2963 2967 2972 2978 2982 2986 2991 2995 3000 3004 3008 3011 3015 3018 3022 3026 3030 3033 3037 3040 3044 3047 3050 3053
2824 2825 2827 2829 2831 2834 2836 2839 2841 2843 2846 2848 2850 2852 2854 2856 2858 2859 2861 2862 2862 2863 2864 2866 2869 2872 2873 2874 2875 2876 2878 2880 2882 2884 2886 2888 2891 2895 2899 2904 2909 2913 2917 2922 2926 2930 2935 2940 2945 2950 2954 2959 2964 2970 2975 2979 2983 2988 2993 2997 3001 3005 3008 3012 3015 3019 3023 3027 3031 3034 3038 3041 3044 3047
2823 2825 2827 2828 2830 2833 2836 2838 2840 2842 2844 2846 2848 2850 2852 2853 2855 2857 2858 2859 2859 2860 2861 2864 2867 2869 2869 2870 2871 2873 2874 2877 2878 2880 2882 2884 2887 2890 2893 2897 2902 2907 2912 2916 2920 2925 2929 2934 2938 2942 2947 2951 2957 2962 2967 2972 2976 2981 2985 2989 2993 2998 3001 3005 3008 3012 3016 3020 3024 3027 3032 3035 3038 3041
2823 2825 2826 2828 2831 2833 2835 2837 2839 2841 2843 2844 2846 2847 2849 2851 2852 2854 2855 2856 2857 2858 2859 2862 2864 2865 2866 2867 2868 2869 2871 2874 2874 2875 2877 2880 2883 2885 2888 2892 2896 2901 2906 2910 2915 2919 2923 2927 2932 2936 2941 2945 2950 2955 2960 2965 2970 2974 2978 2982 2986 2990 2994 2998 3001 3005 3009 3012 3016 3020 3024 3028 3031 3034
2823 2824 2826 2828 2830 2832 2834 2835 2837 2838 2840 2842 2843 2845 2847 2848 2850 2851 2852 2853 2855 2856 2858 2860 2861 2862 2863 2864 2865 2866 2868 2870 2871 2872 2873 2876 2879 2882 2885 2888 2892 2896 2900 2904 2909 2913 2918 2922 2926 2930 2935 2940 2944 2949 2954 2959 2963 2967 2971 2975 2979 2983 2987 2991 2994 2997 3001 3005 3009 3013 3017 3020 3023 3027
2823 2824 2825 2827 2829 2831 2833 2834 2835 2836 2838 2839 2841 2843 2844 2846 2847 2848 2849 2850 2851 2853 2855 2856 2858 2859 2860 2862 2862 2864 2866 2867 2868 2869 2871 2873 2876 2879 2882 2885 2888 2892 2895 2899 2903 2907 2912 2917 2920 2924 2929 2933 2938 2943 2948 2951 2955 2959 2963 2967 2971 2976 2980 2983 2986 2989 2993 2997 3001 3005 3009 3013 3016 3019
2823 2824 2824 2826 2828 2830 2832 2833 2833 2834 2836 2837 2838 2840 2841 2843 2844 2845 2847 2848 2849 2850 2851 2853 2854 2856 2858 2860 2860 2862 2863 2864 2866 2867 2868 2870 2874 2876 2879 2881 2884 2887 2890 2894 2897 2901 2906 2911 2915 2919 2923 2927 2931 2936 2940 2944 2948 2952 2955 2959 2963 2967 2971 2975 2978 2981 2985 2989 2993 2998 3002 3005 3009 3012
2823 2824 2824 2825 2827 2828 2829 2830 2831 2832 2833 2834 2835 2837 2838 2840 2841 2843 2844 2845 2847 2848 2849 2851 2852 2854 2856 2858 2859 2860 2861 2862 2863 2864 2866 2868 2870 2872 2875 2878 2880 2882 2885 2888 2892 2896 2900 2905 2909 2913 2918 2922 2925 2929 2933 2937 2941 2944 2948 2952 2956 2959 2963 2967 2970 2974 2977 2981 2986 2989 2993 2998 3001 3004
2822 2823 2824 2824 2825 2826 2827 2828 2828 2829 2831 2832 2832 2834 2835 2836 2838 2839 2841 2842 2844 2845 2847 2848 2850 2852 2853 2855 2857 2858 2859 2860 2861 2862 2863 2865 2867 2870 2872 2874 2876 2879 2881 2884 2887 2891 2895 2900 2904 2907 2912 2916 2919 2923 2926 2930 2934 2938 2941 2945 2949 2952 2956 2959 2963 2967 2970 2974 2978 2982 2985 2989 2993 2996
2821 2822 2822 2823 2824 2824 2825 2826 2826 2827 2828 2829 2830 2831 2832 2833 2834 2835 2837 2839 2840 2842 2843 2845 2847 2848 2850 2852 2854 2855 2856 2857 2858 2860 2861 2863 2865 2867 2870 2872 2874 2876 2879 2881 2884 2887 2890 2894 2898 2902 2907 2910 2914 2917 2921 2925 2928 2932 2935 2939 2943 2946 2950 2953 2956 2960 2963 2967 2971 2975 2978 2981 2984 2988
2820 2821 2821 2822 2822 2823 2823 2824 2825 2825 2826 2826 2827 2828 2829 2830 2831 2832 2834 2836 2837 2838 2840 2842 2843 2845 2846 2848 2850 2852 2853 2854 2855 2857 2859 2861 2863 2865 2867 2870 2873 2875 2877 2880 2882 2884 2887 2890 2894 2898 2902 2906 2909 2913 2916 2920 2923 2926 2930 2933 2937 2940 2944 2947 2950 2953 2956 2960 2963 2967 2971 2974 2976 2979
2818 2819 2819 2820 2820 2820 2821 2822 2822 2823 2823 2823 2824 2825 2826 2826 2827 2829 2831 2832 2834 2835 2836 2838 2840 2841 2843 2845 2846 2848 2849 2850 2852 2855 2857 2858 2860 2862 2865 2868 2870 2873 2876 2878 2880 2882 2885 2888 2891 2894 2897 2902 2905 2908 2912 2915 2918 2922 2925 2928 2931 2934 2937 2940 2944 2947 2950 2953 2957 2960 2963 2966 2969 2972
2816 2817 2817 2817 2817 2818 2818 2819 2819 2820 2820 2820 2821 2822 2822 2823 2824 2826 2827 2829 2830 2831 2833 2834 2836 2837 2839 2841 2842 2844 2845 2846 2849 2852 2853 2855 2857 2859 2862 2864 2867 2870 2874 2877 2879 2881 2883 2886 2889 2891 2895 2898 2901 2904 2908 2911 2914 2917 2920 2923 2926 2929 2932 2935 2938 2941 2944 2948 2951 2954 2957 2959 2962 2964
2815 2815 2815 2815 2815 2816 2816 2816 2817 2817 2817 2818 2818 2819 2819 2820 2822 2823 2824 2826 2827 2828 2829 2831 2832 2834 2836 2837 2839 2841 2842 2844 2846 2848 2850 2852 2854 2856 2858 2861 2865 2868 2871 2874 2877 2879 2881 2883 2886 2889 2893 2895 2897 2901 2904 2908 2910 2913 2916 2919 2922 2924 2927 2930 2933 2937 2940 2943 2946 2948 2951 2953 2955 2958
2813 2813 2813 2813 2813 2813 2813 2814 2814 2814 2815 2815 2815 2816 2817 2818 2820 2821 2822 2823 2824 2825 2827 2828 2829 2831 2833 2834 2836 2838 2839 2841 2843 2845 2847 2849 2851 2853 2856 2859 2861 2864 2867 2871 2875 2876 2878 2880 2884 2887 2890 2891 2893 2897 2901 2903 2906 2909 2911 2914 2917 2920 2923 2926 2929 2932 2935 2938 2940 2943 2945 2947 2949 2952
2812 2811 2811 2811 2811 2810 2810 2810 2811 2811 2811 2811 2811 2812 2814 2815 2817 2818 2819 2820 2821 2822 2824 2825 2827 2828 2830 2832 2834 2835 2837 2839 2841 2843 2845 2847 2849 2851 2853 2856 2858 2860 2863 2867 2871 2873 2875 2877 2881 2884 2886 2887 2889 2893 2896 2898 2901 2904 2906 2909 2912 2915 2918 2921 2924 2927 2929 2932 2934 2937 2939 2941 2943 2945
2811 2810 2810 2809 2809 2808 2807 2807 2807 2807 2807 2807 2807 2808 2810 2811 2813 2814 2815 2816 2818 2819 2821 2823 2824 2826 2828 2830 2832 2834 2836 2837 2839 2840 2843 2845 2847 2849 2851 2853 2856 2858 2860 2864 2868 2870 2871 2874 2878 2881 2883 2883 2885 2889 2891 2893 2896 2899 2901 2904 2907 2909 2913 2915 2918 2921 2923 2926 2929 2931 2933 2935 2936 2938
2810 2809 2808 2808 2807 2806 2805 2804 2803 2803 2803 2803 2804 2805 2806 2807 2809 2810 2811 2813 2815 2816 2818 2820 2821 2824 2826 2828 2830 2832 2834 2836 2837 2839 2841 2842 2844 2846 2848 2851 2853 2855 2858 2862 2865 2866 2868 2872 2875 2877 2879 2880 2882 2885 2886 2888 2891 2894 2896 2898 2901 2904 2907 2909 2912 2915 2917 2920 2923 2925 2926 2928 2930 2932
2808 2808 2807 2806 2805 2804 2803 2802 2801 2800 2800 2800 2800 2801 2802 2804 2805 2806 2808 2810 2812 2813 2815 2817 2819 2821 2824 2826 2828 2830 2832 2834 2835 2837 2839 2840 2841 2843 2845 2848 2850 2853 2856 2859 2862 2864 2865 2868 2871 2873 2875 2877 2879 2881 2882 2884 2888 2890 2891 2893 2895 2898 2900 2903 2906 2908 2911 2914 2916 2918 2921 2923 2924 2926
2807 2806 2806 2805 2804 2802 2801 2800 2799 2798 2798 2797 2797 2798 2799 2800 2802 2803 2805 2807 2809 2811 2813 2815 2817 2819 2822 2824 2826 2828 2830 2832 2834 2835 2837 2838 2839 2841 2843 2846 2848 2850 2853 2856 2859 2861 2862 2865 2868 2870 2871 2873 2875 2877 2879 2881 2884 2886 2888 2889 2891 2893 2894 2897 2899 2902 2904 2907 2909 2912 2914 2917 2919 2920
2806 2805 2804 2803 2802 2801 2799 2798 2797 2797 2796 2796 2795 2796 2797 2798 2799 2801 2803 2805 2807 2809 2811 2814 2816 2818 2820 2822 2824 2826 2828 2831 2832 2833 2834 2836 2837 2839 2841 2843 2846 2848 2851 2854 2856 2858 2860 2862 2865 2867 2868 2870 2872 2874 2876 2878 2880 2883 2884 2886 2887 2889 2890 2892 2894 2896 2898 2900 2902 2905 2908 2910 2912 2914
2804 2804 2803 2802 2801 2799 2798 2797 2796 2796 2795 2794 2794 2794 2795 2796 2797 2799 2801 2803 2805 2808 2810 2812 2815 2817 2818 2821 2823 2825 2827 2828 2829 2831 2832 2834 2835 2837 2839 2841 2843 2846 2849 2851 2853 2855 2857 2859 2862 2864 2866 2868 2870 2871 2873 2875 2877 2879 2881 2882 2883 2884 2886 2888 2889 2891 2892 2894 2895 2898 2901 2903 2905 2907
2803 2802 2802 2801 2799 2798 2797 2796 2796 2796 2795 2794 2793 2794 2795 2796 2796 2798 2800 2802 2804 2807 2809 2811 2813 2816 2817 2819 2821 2823 2825 2826 2828 2830 2831 2832 2833 2835 2836 2839 2841 2844 2846 2849 2851 2853 2855 2857 2860 2862 2864 2865 2867 2869 2870 2872 2873 2875 2876 2878 2880 2880 2881 2884 2885 2886 2887 2888 2890 2892 2894 2896 2899 2900
2803 2802 2801 2800 2799 2798 2797 2796 2796 2795 2795 2794 2794 2795 2795 2796 2797 2799 2801 2802 2804 2807 2809 2811 2813 2815 2817 2819 2820 2822 2823 2824 2826 2828 2829 2831 2832 2833 2835 2837 2839 2841 2844 2846 2849 2851 2853 2855 2857 2859 2861 2862 2864 2865 2867 2868 2870 2871 2872 2874 2876 2877 2877 2879 2881 2881 2882 2883 2885 2886 2888 2890 2892 2894
2802 2801 2800 2799 2798 2797 2796 2796 2795 2795 2795 2795 2795 2795 2796 2797 2799 2800 2802 2803 2805 2806 2808 2810 2812 2814 2816 2818 2819 2820 2821 2823 2825 2827 2828 2830 2831 2832 2834 2836 2838 2840 2843 2845 2847 2849 2850 2852 2854 2856 2857 2859 2860 2862 2863 2865 2866 2868 2869 2870 2872 2873 2874 2875 2876 2877 2878 2878 2879 2880 2882 2884 2886 2887
2802 2801 2800 2799 2798 2797 2797 2796 2795 2795 2795 2795 2795 2796 2797 2798 2799 2800 2802 2804 2805 2806 2808 2810 2812 2814 2815 2817 2818 2820 2821 2822 2824 2826 2827 2829 2830 2832 2834 2835 2837 2839 2841 2843 2845 2846 2847 2849 2851 2852 2854 2855 2856 2858 2860 2862 2863 2865 2865 2867 2869 2870 2870 2871 2872 2872 2873 2874 2874 2875 2876 2878 2879 2881
2803 2802 2800 2799 2798 2798 2797 2797 2796 2796 2796 2796 2796 2797 2798 2799 2800 2801 2802 2804 2805 2806 2808 2810 2812 2813 2815 2816 2818 2819 2820 2822 2823 2824 2826 2828 2829 2831 2832 2834 2835 2837 2839 2841 2842 2844 2845 2846 2848 2849 2850 2852 2852 2854 2857 2859 2860 2860 2861 2863 2864 2865 2866 2866 2867 2868 2869 2869 2870 2871 2872 2872 2873 2874
2803 2802 2801 2800 2799 2798 2797 2797 2797 2797 2797 2797 2798 2798 2799 2800 2801 2802 2803 2804 2806 2807 2808 2810 2812 2813 2814 2816 2817 2818 2819 2820 2822 2823 2824 2826 2827 2829 2831 2832 2834 2835 2837 2838 2840 2841 2843 2844 2845 2846 2847 2848 2849 2851 2853 2855 2856 2857 2858 2858 2859 2860 2861 2862 2862 2863 2864 2865 2866 2866 2866 2867 2867 2868
2803 2802 2801 2800 2799 2799 2798 2798 2798 2798 2798 2799 2799 2800 2800 2801 2802 2803 2804 2805 2806 2807 2809 2810 2811 2812 2813 2815 2816 2817 2818 2819 2820 2821 2823 2824 2826 2827 2829 2830 2832 2833 2835 2836 2838 2839 2840 2841 2842 2843 2844 2845 2845 2847 2849 2849 2851 2853 2854 2854 2854 2855 2856 2857 2858 2858 2859 2860 2860 2860 2861 2861 2861 2862
2803 2802 2801 2800 2799 2799 2799 2798 2798 2798 2799 2799 2800 2801 2801 2802 2803 2804 2805 2805 2806 2807 2808 2809 2810 2811 2812 2814 2815 2815 2816 2817 2819 2820 2821 2823 2824 2825 2827 2829 2830 2831 2832 2834 2835 2836 2838 2839 2839 2840 2841 2841 2842 2843 2844 2844 2846 2848 2850 2850 2850 2850 2851 2852 2852 2852 2852 2853 2854 2854 2854 2854 2855 2856
2802 2801 2801 2800 2799 2799 2799 2798 2798 2799 2799 2800 2800 2801 2802 2802 2803 2804 2805 2805 2806 2807 2808 2809 2810 2811 2811 2812 2813 2814 2815 2816 2818 2819 2820 2821 2823 2824 2825 2827 2828 2829 2830 2831 2832 2833 2835 2835 2836 2836 2837 2837 2838 2838 2839 2840 2841 2843 2844 2845 2845 2845 2845 2846 2846 2846 2846 2846 2846 2846 2847 2847 2847 2847
2800 2799 2799 2798 2798 2798 2797 2798 2798 2798 2799 2799 2800 2801 2801 2802 2803 2803 2804 2805 2805 2806 2807 2808 2809 2809 2810 2811 2812 2813 2814 2815 2816 2817 2819 2820 2821 2822 2823 2824 2825 2826 2827 2827 2828 2830 2831 2832 2832 2832 2832 2833 2834 2834 2834 2835 2837 2837 2837 2838 2839 2840 2839 2839 2839 2839 2838 2838 2838 2838 2839 2839 2838 2838
2798 2797 2796 2796 2796 2796 2796 2796 2796 2797 2797 2798 2799 2799 2800 2801 2801 2802 2803 2804 2805 2805 2806 2807 2807 2808 2809 2810 2811 2812 2812 2813 2815 2815 2816 2817 2818 2819 2820 2821 2821 2822 2823 2823 2824 2826 2827 2827 2827 2827 2828 2828 2828 2828 2829 2830 2831 2831 2831 2831 2832 2833 2833 2832 2832 2831 2831 2831 2830 2831 2831 2831 2830 2829
2795 2794 2794 2794 2794 2794 2794 2794 2795 2795 2796 2796 2797 2798 2798 2799 2800 2801 2801 2802 2803 2804 2804 2805 2806 2807 2807 2808 2809 2810 2810 2811 2812 2813 2813 2814 2815 2816 2816 2817 2817 2818 2819 2819 2820 2821 2822 2822 2822 2822 2823 2823 2823 2823 2824 2825 2825 2825 2826 2825 2825 2827 2827 2826 2825 2824 2824 2824 2824 2824 2825 2824 2823 2823
2793 2792 2792 2792 2792 2792 2792 2793 2793 2794 2794 2795 2795 2796 2797 2797 2798 2799 2799 2800 2800 2801 2802 2803 2803 2804 2805 2806 2806 2807 2808 2808 2809 2810 2810 2811 2811 2812 2812 2813 2813 2814 2814 2815 2815 2816 2817 2817 2817 2818 2818 2818 2819 2819 2819 2820 2820 2820 2820 2820 2820 2821 2821 2820 2819 2818 2818 2818 2820 2820 2818 2817 2817 2816
Wind_Speed
39 40 40 41 41 41 40 40 39 40 41 41 40 40 40 41 43 45 47 49 51 54 56 56 56 60 63 66 70 75 76 77 79 79 77 76 75 75 76 76 74 70 68 68 66 64 62 61 60 59 60 61 60 56 53 52 51 50 48 46 45 45 42 37 35 36 36 37 39 40 43 44 45 45
38 38 38 38 38 37 37 38 38 38 37 37 38 39 37 35 35 37 40 42 41 41 43 45 47 50 56 60 64 70 76 79 81 81 79 77 76 75 76 77 77 74 70 69 69 67 65 63 62 61 61 61 62 61 57 53 52 53 51 47 44 44 41 39 38 37 37 37 38 39 41 43 45 45
38 38 37 37 37 37 38 39 40 38 36 36 38 40 39 36 34 35 39 42 38 34 34 36 37 39 45 52 57 64 73 79 81 80 78 78 77 75 75 76 77 77 73 71 71 69 67 66 65 64 63 62 62 64 62 57 53 54 54 51 49 47 44 44 43 40 37 37 37 38 39 41 42 44
36 37 37 37 38 38 39 40 41 40 38 38 38 38 39 39 37 36 40 43 41 36 34 36 37 39 40 42 46 53 61 72 78 78 76 76 76 76 75 75 76 78 76 73 72 71 70 69 68 66 65 64 63 64 64 63 59 56 56 55 54 53 50 48 46 42 39 38 38 38 38 39 39 41
35 35 35 36 37 37 38 38 39 39 37 38 39 38 38 39 38 38 40 43 43 40 37 37 39 41 42 40 38 39 45 56 68 75 75 73 73 75 76 75 75 77 78 75 73 73 72 72 71 69 67 66 65 65 64 65 65 62 60 59 57 55 54 52 50 46 43 42 41 40 40 40 39 40
29 31 32 32 33 32 33 35 37 37 36 37 39 37 36 38 38 38 41 43 45 44 42 41 40 41 43 42 39 35 35 41 53 65 72 72 70 71 75 76 75 76 78 78 75 74 75 74 73 72 71 69 67 67 66 65 65 64 63 62 61 59 57 56 55 52 49 47 44 43 43 42 42 42
26 28 29 29 28 27 29 30 32 34 34 35 37 35 35 37 37 37 40 43 45 45 44 43 42 42 43 43 41 37 32 34 43 53 63 69 68 66 69 73 75 74 77 79 77 75 76 76 75 74 74 72 69 68 67 66 65 65 64 63 63 62 61 59 58 56 53 50 47 46 46 45 44 44
28 30 31 30 28 26 28 28 27 28 29 31 32 33 34 34 35 36 38 40 42 43 45 46 43 42 43 43 43 41 35 34 39 45 53 62 65 63 62 66 72 73 74 77 79 77 76 76 77 77 75 75 73 70 68 68 67 65 64 64 63 63 63 62 61 59 56 53 50 49 49 49 47 46
27 29 32 31 28 27 27 26 25 26 28 27 27 30 32 33 34 34 35 37 39 41 44 45 43 41 41 40 42 44 40 36 37 41 46 54 60 62 60 60 64 69 71 73 77 79 78 76 75 77 78 76 75 74 71 69 68 67 66 65 64 63 63 63 63 62 61 58 55 53 53 52 51 50
24 27 29 29 29 29 28 27 27 29 29 26 24 27 31 32 32 31 31 34 36 37 40 42 42 40 36 34 38 44 45 40 37 40 44 48 54 60 61 59 58 61 64 67 71 75 78 77 74 74 79 80 77 76 75 72 70 69 68 67 65 64 63 62 62 61 61 60 57 55 55 55 54 53
21 23 26 28 30 30 28 28 29 30 29 26 24 27 30 31 31 30 29 32 33 34 36 40 42 40 34 32 35 41 46 46 41 40 42 45 48 53 58 60 59 57 57 59 63 68 72 77 76 73 76 81 81 78 76 75 73 71 70 70 68 66 65 63 61 60 59 59 58 58 58 58 58 56
18 21 23 27 31 31 27 26 27 29 29 25 25 27 27 27 28 26 26 28 30 31 34 37 40 39 36 35 35 38 44 46 41 39 41 42 43 44 49 56 59 59 56 54 56 61 65 70 75 75 73 75 79 80 78 76 75 74 73 73 72 70 67 65 63 61 59 59 59 59 60 60 61 60
13 15 19 26 31 28 24 24 26 29 28 25 26 27 24 23 23 21 22 25 26 28 32 36 37 37 37 35 34 36 41 42 39 38 40 41 40 40 43 48 54 59 60 57 54 56 59 63 68 73 74 71 72 75 77 76 75 75 75 75 73 72 69 67 65 64 62 61 60 61 61 61 62 62
8 10 16 23 27 25 23 24 26 27 26 24 25 26 23 22 21 19 20 22 22 23 29 33 32 32 31 28 27 32 34 33 33 37 41 42 39 39 42 45 48 52 56 59 59 57 56 58 61 66 70 70 68 68 72 74 73 73 73 73 72 72 71 69 68 67 66 64 63 62 62 62 63 63
8 10 12 18 24 24 23 25 25 25 24 23 23 24 23 24 23 21 19 20 19 18 21 23 22 22 23 22 23 28 28 24 23 28 37 43 41 38 40 41 44 47 49 52 57 60 58 55 56 59 62 65 66 64 66 69 71 71 72 72 71 72 72 71 70 69 68 68 66 65 65 64 64 64
12 12 10 15 21 22 23 25 26 26 25 23 22 22 23 25 25 24 21 20 19 18 17 18 18 18 19 20 20 23 25 24 21 19 26 36 41 40 39 38 40 44 46 46 51 58 61 57 54 54 56 59 62 62 62 64 68 72 73 74 74 73 73 72 71 70 69 69 69 68 68 67 67 67
12 11 11 16 19 19 21 26 29 28 27 26 24 23 23 24 25 25 24 23 22 21 19 20 21 19 19 18 17 18 20 24 25 22 20 24 30 36 37 36 36 39 43 46 47 52 58 60 56 52 52 53 57 61 62 62 65 69 72 73 73 73 73 72 71 70 69 68 68 69 69 69 69 69
12 10 11 14 17 16 17 21 27 29 30 29 29 27 26 26 25 24 25 24 24 24 23 23 24 23 21 20 18 18 18 20 24 27 26 23 23 25 27 29 30 32 35 40 43 45 50 53 53 52 51 50 52 57 62 63 64 66 68 69 69 70 71 72 71 70 69 68 68 69 70 70 70 70
12 12 12 13 15 15 14 14 19 24 27 29 31 31 30 29 28 27 26 25 25 25 25 26 26 26 26 24 22 21 21 21 22 24 27 28 27 24 22 22 25 26 27 30 34 38 41 44 46 47 48 49 49 52 56 59 62 64 65 65 66 66 67 69 69 69 69 69 69 70 71 70 70 71
12 13 14 14 14 14 13 13 14 17 21 25 29 31 32 32 31 31 29 28 28 28 27 28 28 29 30 29 27 25 24 24 24 24 25 27 29 29 26 23 22 23 24 25 26 29 33 36 40 42 43 45 47 48 50 52 54 57 59 61 62 63 63 65 66 66 67 68 67 67 68 69 67 68
14 14 14 15 15 15 15 14 14 15 18 21 24 27 30 32 33 34 33 32 31 31 30 30 30 30 32 31 30 29 28 27 27 27 26 26 28 29 30 28 26 24 24 24 25 26 27 29 34 38 40 41 41 42 43 44 45 47 50 52 54 56 57 58 59 60 60 61 61 61 62 63 63 62
16 16 17 18 19 18 18 17 17 17 19 21 22 23 25 28 30 32 32 33 32 32 32 32 31 31 32 32 32 32 31 30 31 30 28 28 29 30 31 32 31 29 27 26 26 26 26 25 27 30 34 36 37 37 37 38 38 39 41 43 45 46 47 48 48 49 49 49 51 52 54 56 58 58
17 18 18 19 19 20 20 20 20 21 22 23 24 23 24 25 25 25 26 27 28 30 31 32 32 32 32 32 32 32 32 33 33 32 30 30 31 32 33 34 35 34 32 29 27 27 27 26 25 25 27 28 30 32 33 33 34 35 36 37 38 39 39 40 40 40 41 41 42 44 46 48 50 51
16 16 17 17 18 19 19 20 21 22 24 25 25 26 26 26 24 22 22 23 24 25 26 27 28 29 30 30 29 30 31 32 32 31 30 30 31 33 34 35 36 37 37 34 31 29 29 28 26 25 25 26 26 28 30 30 31 32 33 34 35 35 36 36 36 36 37 37 38 39 41 42 43 44
15 16 17 17 18 19 20 21 21 22 24 25 27 27 27 26 25 24 23 22 22 23 23 24 24 24 26 28 28 29 30 30 30 30 29 29 30 31 33 34 35 37 38 36 33 31 31 31 29 26 26 28 29 28 29 30 30 31 33 34 35 36 36 37 37 37 37 37 38 39 39 40 41 42
12 13 14 16 17 19 20 21 22 23 24 25 27 27 26 25 26 25 25 24 24 24 23 23 23 22 22 24 26 27 28 28 29 29 29 29 30 31 31 32 33 34 36 34 31 29 31 32 31 27 26 28 30 30 30 31 31 32 34 35 36 37 38 38 39 39 39 40 40 41 42 43 44 45
9 9 10 11 13 16 18 20 22 24 25 26 27 27 26 26 26 25 26 26 26 26 25 24 24 23 22 22 22 22 23 24 25 27 27 29 30 31 31 32 32 33 34 33 29 29 31 33 32 29 28 30 32 33 33 34 34 34 35 37 39 40 40 41 41 42 42 42 43 43 44 45 46 47
9 9 10 11 12 14 16 18 20 22 23 24 25 26 26 26 26 26 27 26 26 26 26 26 26 25 24 23 22 22 22 22 22 22 23 26 28 30 32 33 32 32 32 30 28 29 31 33 32 31 31 33 34 35 37 37 38 38 38 39 40 41 42 43 43 44 45 45 45 45 46 46 47 49
10 10 11 12 13 14 14 16 17 18 18 19 20 21 21 22 23 25 26 26 25 25 25 25 25 24 23 22 22 22 22 21 21 21 21 23 26 29 32 33 32 32 30 28 27 28 31 32 32 31 32 34 36 38 40 40 41 41 41 42 42 42 43 44 44 44 45 45 46 47 47 48 48 49
11 11 12 12 13 13 13 13 13 13 13 14 15 16 18 19 20 22 23 24 26 25 23 22 22 21 21 21 22 22 21 19 20 21 21 22 24 26 30 32 33 32 30 28 26 28 30 31 31 31 32 34 36 38 40 40 39 39 39 40 40 41 41 42 42 42 43 44 45 46 47 47 48 49
10 11 11 11 12 13 12 11 9 9 9 11 12 13 14 16 19 20 19 19 22 24 23 21 19 19 19 19 21 21 19 18 19 20 20 21 22 23 26 30 33 32 31 29 29 29 29 30 30 30 32 33 34 36 37 37 36 35 35 36 37 38 39 39 40 40 41 42 43 44 44 45 46 48
8 9 9 10 11 11 10 8 6 5 7 8 7 8 8 10 14 18 18 16 18 21 21 19 18 18 18 18 19 20 21 21 21 20 19 20 20 21 24 28 31 32 31 30 30 30 30 30 30 30 31 32 33 34 34 34 34 34 33 34 35 36 37 37 38 40 41 42 43 43 43 43 44 45
7 7 8 8 9 9 8 6 4 3 5 4 3 6 5 5 9 14 16 15 14 16 18 18 18 18 18 17 17 19 21 22 20 18 17 17 18 20 23 26 28 30 31 31 31 31 31 31 30 30 31 32 33 33 33 33 33 32 32 32 32 33 35 35 36 37 39 41 42 42 43 44 44 45
7 6 6 6 7 7 6 5 3 2 2 1 4 7 7 7 9 12 12 13 13 14 16 18 18 18 18 17 16 17 20 20 18 16 16 16 17 19 23 25 26 27 28 29 29 29 30 30 30 30 31 32 33 32 32 32 31 30 30 30 29 31 33 33 33 34 35 37 39 40 42 43 43 44
9 7 6 6 6 6 6 5 3 1 0 1 6 9 10 10 11 11 11 12 13 13 15 17 18 17 16 16 14 15 17 18 17 17 17 17 17 18 20 22 23 23 23 24 25 26 27 28 29 29 30 31 31 31 30 30 29 28 29 29 28 29 31 31 31 33 34 35 37 38 39 40 41 42
11 9 7 5 5 5 5 5 4 2 2 4 6 9 11 11 11 12 13 13 12 12 14 17 18 16 14 14 15 15 16 17 17 17 17 17 16 16 17 19 20 19 20 21 22 23 25 26 26 27 28 28 29 29 27 27 27 27 28 28 27 28 29 30 31 32 34 35 36 37 38 39 40 40
13 11 8 6 4 3 2 3 4 5 7 9 10 10 10 10 10 12 13 13 12 13 15 17 16 15 14 14 15 15 15 16 17 17 17 17 17 17 17 18 18 18 19 21 21 22 23 23 23 24 25 26 27 27 25 25 26 27 28 28 28 29 30 31 32 33 34 35 36 37 38 39 40 41
12 12 10 7 4 0 2 4 5 7 10 13 13 12 11 10 10 11 12 12 13 14 16 16 15 15 14 14 15 16 16 17 18 18 18 19 19 19 19 19 20 20 20 21 21 21 22 23 23 24 25 26 26 26 24 25 26 26 27 29 30 31 32 33 34 35 36 37 38 39 40 42 42 44
11 11 11 9 5 1 3 5 6 8 11 13 13 11 11 10 10 10 11 12 13 14 16 16 16 15 14 14 16 17 17 18 18 19 19 20 20 20 20 20 20 21 21 21 21 22 23 24 24 24 25 26 27 26 26 27 28 27 28 30 32 33 34 35 36 37 38 39 40 41 42 44 44 45
10 10 10 9 6 3 4 6 7 9 11 12 11 9 10 10 10 10 11 12 13 14 15 15 15 14 14 15 16 17 17 17 18 18 19 20 20 20 20 19 19 19 20 20 21 21 22 22 23 24 25 27 28 29 29 30 31 31 31 32 34 36 37 37 39 40 41 41 42 43 44 45 45 45
11 11 10 9 7 5 4 6 8 10 12 12 10 9 9 9 9 10 11 12 12 12 13 13 12 12 12 13 14 14 14 14 14 15 16 17 17 17 17 17 17 18 18 19 20 20 21 22 24 26 27 28 30 31 33 33 34 34 35 35 36 37 38 40 41 42 43 43 44 45 46 46 47 48
14 13 12 10 9 7 6 7 9 12 13 14 13 12 12 12 12 12 13 13 13 13 13 13 12 13 13 12 12 13 13 13 14 15 15 16 17 17 17 18 18 19 20 21 22 22 23 25 27 29 30 31 33 34 36 36 36 37 38 38 37 37 39 40 40 42 43 44 45 46 46 47 48 50
16 15 13 11 10 9 8 7 8 11 14 16 17 17 17 17 17 16 15 15 15 15 15 15 14 14 14 14 14 14 14 15 16 16 17 18 19 19 20 21 21 22 23 25 26 26 27 28 30 31 32 33 34 35 35 35 35 36 37 37 37 37 37 39 41 42 43 44 45 45 46 46 48 49
16 13 11 10 9 10 10 9 8 9 12 14 17 18 19 19 18 18 17 17 17 17 18 18 18 18 18 18 18 18 19 19 20 20 21 22 22 23 24 25 26 26 27 29 29 28 28 29 30 30 31 31 32 32 32 32 33 33 34 35 36 35 35 37 39 40 42 43 43 43 44 45 46 47
13 10 8 8 8 9 10 10 9 9 9 11 12 14 16 17 17 17 17 16 17 17 18 19 20 20 21 21 22 22 22 23 23 23 24 24 25 25 26 27 27 27 27 27 26 26 26 26 26 27 27 27 28 28 29 29 30 30 31 32 32 32 33 35 36 38 40 40 39 40 42 43 43 44
Wind_Direction
250 250 248 247 245 242 241 244 245 244 243 242 243 244 244 246 250 252 253 255 254 254 252 250 250 251 248 244 242 241 238 235 234 232 230 232 233 233 233 231 230 230 229 227 229 231 230 228 226 223 222 223 223 220 220 220 221 223 224 226 227 226 223 221 222 225 229 233 233 231 231 232 232 233
248 248 247 246 245 241 237 239 242 242 240 236 235 237 238 239 244 248 249 250 250 251 252 250 248 251 251 247 242 239 237 233 231 230 229 229 231 231 232 232 230 229 229 228 227 228 229 228 227 225 222 222 222 221 218 219 221 222 220 222 225 222 222 223 222 222 226 231 233 234 234 232 231 232
248 247 246 245 244 241 237 236 240 242 239 234 232 233 233 233 237 239 241 244 241 239 242 242 238 240 247 249 245 241 238 234 231 230 229 227 228 230 230 232 231 229 229 229 227 226 226 227 227 226 223 222 222 222 221 218 218 220 220 221 223 223 222 224 224 223 225 229 233 235 236 235 234 233
246 245 244 243 243 242 240 238 240 242 240 235 234 234 233 233 236 237 238 240 237 232 236 238 232 228 233 242 246 246 242 237 234 233 231 228 228 228 229 230 231 229 227 228 229 226 225 226 226 226 224 222 221 222 223 221 219 220 221 222 224 224 223 222 222 222 223 227 232 235 237 238 237 236
245 243 243 243 242 243 243 241 239 240 239 236 234 235 235 236 238 239 241 241 237 234 236 239 236 231 230 231 235 242 245 240 237 236 234 231 230 229 228 228 229 229 227 227 228 227 225 224 225 225 223 221 220 220 222 223 223 222 221 221 222 224 224 222 222 223 224 226 229 233 237 240 240 239
244 242 241 241 241 241 241 240 237 236 236 234 233 234 236 237 238 241 244 241 237 237 239 239 238 234 231 231 228 232 242 240 236 236 235 234 233 231 229 228 228 228 227 226 227 227 226 224 224 223 222 220 219 220 221 222 224 225 224 223 223 224 225 225 226 227 226 225 226 230 235 239 241 240
235 232 233 233 233 234 233 235 234 233 234 234 232 233 236 237 238 241 244 240 235 238 242 240 238 234 232 232 228 229 238 239 233 232 233 233 234 232 231 229 227 227 227 226 226 226 225 225 225 223 222 220 219 219 220 221 223 224 225 225 226 226 226 226 227 226 224 224 227 230 232 234 236 238
229 227 226 224 223 223 224 227 226 226 228 229 229 234 236 238 240 241 241 238 237 242 246 243 239 235 233 233 231 230 235 236 232 230 230 230 231 231 231 230 228 226 226 226 226 225 224 224 226 226 223 222 221 220 219 220 222 223 224 225 226 227 227 226 226 225 226 229 231 231 230 230 231 234
231 228 225 222 218 213 213 215 214 214 217 220 227 234 236 237 239 237 236 237 239 245 248 245 237 232 231 234 234 233 234 236 234 231 229 228 228 229 228 228 228 227 225 225 225 225 225 224 225 228 227 224 223 222 222 221 222 223 224 225 225 226 227 228 227 228 231 233 233 231 230 229 231 233
232 228 226 222 213 205 206 208 208 211 214 218 228 235 234 233 233 234 238 241 243 246 248 244 234 228 231 237 240 239 237 238 238 232 231 229 227 227 227 225 226 226 226 226 225 225 225 225 225 228 230 228 226 224 224 223 223 224 226 226 226 226 227 228 229 229 230 232 232 231 230 230 232 233
232 228 226 220 207 203 206 208 208 211 215 220 229 231 230 230 231 235 243 244 244 246 247 242 232 229 236 242 244 242 237 238 240 233 230 230 228 229 229 227 225 224 224 226 226 226 225 226 226 226 228 230 229 228 226 225 224 226 227 227 227 227 227 227 228 229 229 230 230 230 230 231 232 234
232 231 229 220 208 205 209 210 210 213 216 224 229 225 224 228 229 234 243 243 245 248 245 237 231 234 244 247 244 241 238 238 239 233 228 228 227 229 230 229 227 224 222 222 225 227 226 226 227 227 227 228 229 230 229 228 227 227 228 228 227 227 227 227 228 229 229 229 230 231 231 232 233 235
229 232 234 222 210 208 213 217 218 218 222 229 228 221 222 226 228 235 241 240 246 249 240 231 228 235 246 248 242 237 237 239 241 236 230 227 226 228 229 228 229 228 225 223 224 227 228 228 228 229 229 229 229 229 230 230 230 230 230 229 228 227 227 227 228 229 229 229 229 230 231 233 234 235
211 231 240 226 213 211 217 222 224 223 225 231 227 221 224 229 229 233 235 234 238 240 233 228 229 233 240 245 237 228 229 236 241 238 234 229 227 229 229 228 228 229 229 228 227 227 228 229 229 230 231 232 232 231 229 229 230 232 233 232 231 230 228 227 227 228 229 230 230 229 230 231 233 234
199 217 235 228 219 219 220 221 224 224 224 228 228 225 227 230 231 230 228 227 227 223 219 221 224 227 233 240 235 225 222 229 236 236 233 230 229 230 231 230 229 228 228 229 228 226 227 228 229 229 231 233 234 234 233 231 231 232 234 235 234 234 232 230 229 229 229 230 230 230 230 230 231 233
204 204 210 220 223 227 227 226 228 228 228 228 228 227 226 227 230 229 225 223 222 217 212 215 220 224 229 235 235 229 226 226 228 228 227 227 228 231 232 231 230 230 229 228 227 226 227 229 230 230 230 232 233 234 235 235 234 233 234 236 237 237 236 234 233 231 231 231 231 231 231 231 231 232
212 205 202 212 218 226 235 237 236 235 234 234 232 231 229 228 228 230 229 227 227 227 223 221 224 226 228 234 238 238 234 231 230 231 227 221 221 225 227 226 225 226 227 227 227 226 226 229 232 233 232 233 233 233 233 235 236 236 235 235 237 238 238 239 238 236 235 234 234 234 234 233 232 232
220 221 214 209 209 219 235 242 242 239 238 238 238 237 236 233 231 232 233 233 234 235 233 231 231 230 230 234 239 244 244 237 234 235 236 232 224 218 218 219 220 220 220 221 223 225 226 228 231 233 234 234 234 233 232 233 235 236 235 235 235 237 238 239 240 240 239 237 237 237 237 237 235 234
227 234 230 220 215 221 232 241 242 240 239 241 242 241 240 239 238 237 237 237 239 240 240 240 241 240 239 239 240 245 248 245 241 239 239 239 236 230 224 219 217 217 216 214 214 215 218 222 226 228 229 230 232 232 231 231 231 233 234 234 235 235 236 237 239 239 240 240 240 240 240 241 241 239
235 238 236 231 228 230 235 240 240 239 240 242 242 243 243 242 242 242 241 241 243 243 243 243 243 244 245 244 243 245 248 249 249 247 244 242 241 239 236 228 220 216 215 214 211 207 205 208 213 218 220 222 225 227 228 229 229 230 232 233 234 235 235 236 237 237 238 239 241 241 241 242 242 240
244 246 245 244 244 244 245 246 244 242 242 242 242 243 244 244 244 244 244 244 245 245 244 243 243 244 245 245 244 244 245 248 250 250 248 247 245 243 241 237 230 224 219 217 215 212 206 203 205 209 212 215 218 220 222 224 225 225 227 229 231 232 233 233 234 235 236 236 237 238 239 239 240 239
254 254 252 251 251 251 250 248 245 242 242 242 240 240 241 244 245 245 245 246 247 246 245 244 243 243 244 244 243 243 243 244 247 249 248 247 246 245 244 242 239 235 230 225 222 219 216 211 209 208 207 210 214 216 216 219 220 221 222 223 225 226 227 227 228 229 230 231 232 233 234 235 236 237
255 255 253 253 252 251 251 248 244 242 242 242 240 238 238 239 241 241 242 243 243 243 244 244 244 244 243 241 239 239 240 241 243 245 244 244 244 244 244 243 242 240 238 235 232 229 225 221 220 220 216 214 217 218 218 218 221 222 222 223 223 224 225 226 226 226 226 226 226 227 228 230 232 233
260 260 259 258 255 253 252 250 247 244 244 244 243 241 240 239 239 238 237 236 236 236 238 240 241 240 238 235 233 233 236 238 239 240 239 239 240 240 241 243 243 242 241 239 237 238 238 235 232 234 235 234 233 231 229 228 229 230 231 231 231 231 231 232 232 233 233 233 232 230 230 230 231 233
269 269 268 266 264 260 258 255 253 250 248 248 247 245 244 243 242 241 238 236 234 232 232 232 232 231 230 230 230 232 234 236 237 237 235 234 235 236 237 239 240 239 239 237 236 238 242 243 242 241 242 244 244 242 240 240 240 239 239 239 239 239 240 240 241 242 242 243 244 243 242 241 241 240
276 272 271 270 269 267 265 262 260 257 253 251 250 249 247 245 243 242 240 238 236 233 230 228 227 226 225 227 229 232 235 236 236 236 234 233 234 234 235 235 234 233 233 232 229 230 236 241 242 240 239 243 246 246 245 244 243 241 241 242 243 244 244 245 246 246 246 247 248 249 250 249 249 248
286 281 278 277 276 274 270 264 261 258 255 253 252 251 249 246 243 241 239 237 236 235 232 228 228 227 225 225 225 226 229 232 234 235 235 234 233 233 233 233 231 229 230 227 223 223 228 235 237 236 235 239 243 246 246 245 244 243 242 242 243 244 244 245 245 246 246 246 247 248 249 249 249 251
293 290 289 290 291 290 282 273 266 261 257 254 252 250 248 245 241 238 238 237 236 236 233 229 228 228 227 226 224 224 226 228 230 232 234 235 234 230 229 230 228 227 228 227 223 223 228 232 235 235 235 238 243 246 247 248 248 248 246 245 245 245 246 245 245 245 245 245 245 244 245 246 247 248
292 292 293 296 299 299 291 279 271 266 263 260 255 249 245 242 239 236 235 233 231 232 232 230 229 228 227 225 223 221 221 222 224 227 230 234 234 229 226 226 224 224 225 223 222 225 229 232 233 233 234 237 241 244 246 248 249 249 248 248 249 248 248 247 246 245 244 243 242 241 241 242 244 246
287 289 292 296 302 304 299 285 274 269 267 264 258 248 241 237 235 233 231 229 225 224 227 228 227 226 225 222 220 218 215 215 221 225 227 230 232 228 225 223 222 221 221 219 218 222 227 228 229 231 234 236 239 242 244 246 246 246 245 247 248 248 249 249 249 247 246 244 243 242 241 241 241 242
286 287 290 296 305 310 307 296 286 280 277 271 259 244 236 235 232 226 224 225 223 220 220 222 222 220 218 215 215 213 209 210 220 225 225 227 229 227 223 222 221 220 220 218 217 219 224 227 226 228 232 235 237 240 242 242 243 243 243 245 246 246 247 248 249 249 248 247 246 245 244 243 242 242
299 293 293 299 309 314 312 303 297 299 300 288 256 224 222 238 233 220 213 217 219 215 215 216 215 214 211 208 209 210 207 208 216 220 222 226 228 225 221 219 219 219 219 219 219 219 222 226 227 228 230 233 236 239 241 242 243 243 244 245 247 247 247 247 248 249 249 249 249 248 247 246 246 246
319 305 300 304 315 322 321 314 312 322 324 312 213 180 187 217 213 200 198 204 208 207 209 211 208 208 208 204 204 210 212 212 215 217 220 225 226 224 220 218 218 219 219 220 222 222 223 225 228 230 232 234 236 239 242 244 245 245 245 244 245 247 248 247 248 250 250 250 250 250 249 249 248 249
337 321 319 324 328 330 326 319 318 337 349 7 159 160 154 158 172 178 184 193 197 200 207 210 205 203 204 200 201 212 217 217 217 218 220 223 223 221 219 217 218 219 219 220 224 226 226 228 230 232 233 235 237 239 240 241 242 242 243 242 240 243 247 248 249 250 251 251 251 251 250 250 250 250
356 348 348 346 341 337 334 339 349 359 7 134 163 169 160 154 165 176 182 191 199 203 207 206 200 197 199 198 202 215 222 222 219 219 220 221 220 218 217 217 217 218 219 222 224 226 226 227 228 229 231 232 234 236 237 239 241 242 244 244 243 244 247 249 249 250 250 251 251 252 252 252 251 251
5 1 355 346 340 343 355 10 31 78 131 133 148 165 171 170 175 179 183 192 202 204 200 196 192 192 199 203 206 215 224 225 222 219 219 220 219 216 215 216 216 215 216 219 221 222 224 225 226 228 231 233 237 239 239 241 244 246 247 248 247 247 248 249 249 249 250 250 251 253 254 254 254 254
1 0 356 345 332 343 26 56 77 106 120 121 124 137 152 164 170 174 178 185 190 190 189 188 191 198 206 209 210 213 218 221 220 218 217 218 219 218 217 218 219 219 219 221 223 225 230 233 235 238 241 242 244 245 244 244 246 248 250 250 249 248 248 249 250 250 251 252 253 254 255 255 256 255
350 352 354 352 344 342 120 109 111 124 128 124 121 123 132 143 152 159 165 168 171 177 183 189 198 206 210 210 210 211 212 214 214 215 216 216 218 219 219 220 223 223 223 225 227 230 235 239 242 245 247 249 250 251 250 249 248 250 253 254 254 252 251 252 254 254 254 255 256 257 257 257 257 257
340 342 344 347 348 280 181 151 143 150 149 139 133 134 140 147 154 162 170 175 178 184 191 198 203 205 205 208 212 214 215 214 213 214 217 219 219 221 221 222 224 226 228 230 232 234 238 241 244 247 249 252 254 255 255 255 254 253 254 256 258 259 259 259 260 260 260 260 260 260 260 261 260 261
328 330 331 333 334 305 231 193 176 171 165 156 152 156 163 169 174 178 182 189 193 198 203 207 208 208 208 212 216 219 220 217 214 215 219 221 222 224 226 228 230 232 235 237 238 240 242 244 247 249 251 253 256 257 257 258 258 258 258 259 261 263 264 264 265 265 265 265 265 264 264 264 264 263
317 315 313 310 307 296 253 214 200 189 177 172 174 180 186 192 197 198 198 202 206 209 210 211 214 218 221 222 222 222 222 221 220 221 224 226 228 231 233 235 238 239 241 243 244 246 248 249 251 253 254 255 257 259 260 261 262 264 264 263 263 264 265 265 266 267 267 267 267 266 266 266 266 265
309 305 299 291 284 277 255 222 209 203 195 190 188 190 193 197 203 208 211 212 214 217 218 218 220 224 227 228 227 225 225 226 227 230 232 234 236 238 241 244 245 248 251 253 254 254 256 257 259 260 260 260 262 262 264 265 267 267 268 267 266 266 267 267 267 267 267 267 267 267 267 267 266 266
303 299 292 281 267 257 249 233 217 211 209 207 206 205 206 209 213 218 222 223 224 227 230 232 233 234 234 237 239 240 241 240 240 240 242 243 245 248 252 254 256 259 261 262 263 262 263 263 263 264 264 265 266 266 267 268 268 269 269 268 267 267 267 268 268 267 267 267 267 267 267 267 267 268
301 295 287 275 257 244 239 235 227 220 216 215 217 219 221 225 229 233 237 238 237 237 238 240 242 244 246 248 250 252 254 255 255 255 255 256 257 259 260 262 263 264 265 266 266 266 266 265 265 265 266 266 267 267 268 268 267 267 266 267 267 266 265 265 265 266 266 266 266 267 268 268 269 269
298 290 279 266 251 239 234 230 226 220 216 216 218 221 224 229 233 235 238 239 238 237 238 239 241 243 245 247 249 250 252 253 254 255 256 257 258 259 260 261 262 262 263 264 265 265 265 265 265 266 266 266 267 267 267 267 267 267 266 267 268 268 266 265 265 266 266 267 268 270 270 270 270 270